Retour au catalogue

TIANMU-1 QIXIANG XINGZOU 02

ActifMétéoSSO
NORAD 55137·PAYLOAD·🇨🇳 China
Ce nom de satellite n'a pas encore été confirmé par des sources officielles.

Lancé Jan 9, 2023 depuis Jiuquan Satellite Launch Center

Loading…

Prochains Passages (prochaines 24 heures)

TLE

FraisSource: Space-Track

Époque: Sep 14, 2026, 15:25 UTC

1 55137U 23003E   26257.64238975  .00021180  00000-0  27488-3 0  9999
2 55137  97.1355 333.1792 0004605 130.7346 229.4312 15.58844340206182

Suivez TIANMU-1 QIXIANG XINGZOU 02 en temps réel avec AllMySat

Download on the App Store